Location: Fort Worth, Tx
(32.7431°N, 97.3695°W)
Time: 13:43:56
(UTC-04:00)

Transit 2A - Pass Details

Date: 29 February 2024
Orbit: 596 x 956 km, 66.7° (Epoch: 20 April)

Event Time Altitude Azimuth Distance (km) Brightness Sun altitude
Exits shadow 06:19:25 31° 216° (SW) 1,399 7.0 -21.5°
Drops below altitude 10° 06:23:02 10° 184° (S) 2,469 8.5 -20.7°
Sets 06:25:47 0° 176° (S) 3,456 9.4 -20.1°
